[[{"header":{"parameterUnit":"m.s-1","parameterCategory":1,"la1":30.2991,"la2":30.254,"lo1":-89.0895,"lo2":-89.0444,"dy":0.0017,"dx":0.0017,"nx":28,"ny":28,"refTime":"2024-08-03T21:00:00:Z","depth":0,"parameterNumber":2,"parameterNumberName":"U-component_of_WINDS"},"data":[0,0,0,0,0,0,0,0,0,0,0,0,0,0,0,0,0,0,0,0,0,0,0,0,0,0,0,0,0,0,0,0,0,0,0,0,0,0,0,0,0,0,0,0,0,0,0,0,0,0,0,0,0,0,0,0,0,0,1.1453,1.1454,0,1.1576,1.1577,1.1578,1.1603,1.1602,1.1601,1.16,1.173,1.1734,1.1738,0,0,0,0,0,0,0,0,0,0,0,0,0,1.1243,1.1246,1.1452,1.1454,1.1455,1.1575,1.1577,1.1579,1.1603,1.1602,1.16,1.1599,1.1728,1.1733,1.1739,0,0,0,0,0,0,0,0,0,0,0,0,0,1.1347,1.1248,1.1452,1.1482,1.1486,1.1575,1.1577,1.1579,1.1603,1.1602,1.16,1.1599,1.1726,1.1733,1.1739,1.1809,0,0,1.1759,1.1762,0,0,0,0,0,0,0,0,1.1341,1.1354,1.1476,1.148,1.1484,1.1572,1.1551,1.1656,1.1603,1.1559,1.16,1.1598,1.1679,1.1689,1.1715,1.1815,1.182,1.176,1.1764,1.1767,1.1768,0,0,0,0,0,0,0,1.1334,1.1349,1.1501,1.1478,1.1483,1.1491,1.1504,1.1571,1.1625,1.1562,1.1564,1.1579,1.1681,1.1709,1.1719,1.1822,1.176,1.1765,1.177,1.1772,1.1988,1.199,0,0,0,0,0,0,1.132,1.1343,1.1497,1.1505,1.1407,1.1496,1.151,1.1546,1.1625,1.1635,1.158,1.1579,1.1699,1.1711,1.1723,1.1812,1.1767,1.1773,1.1776,1.1986,1.1989,1.199,0,0,0,0,0,0,1.1316,1.1334,1.1492,1.1425,1.1445,1.1501,1.154,1.1549,1.1577,1.1638,1.1648,1.1598,1.1698,1.1714,1.1788,1.1817,1.1776,1.1782,1.1984,1.1987,1.199,1.1988,0,0,0,0,0,0,1.131,1.1332,1.1358,1.1425,1.1449,1.1553,1.1542,1.1552,1.1588,1.1588,1.1658,1.1668,1.1698,1.1778,1.1794,1.1825,1.1787,1.1982,1.1985,1.1989,1.1986,1.199,1.1994,0,0,0,0,0,1.1302,1.1353,1.1359,1.1378,1.1482,1.1555,1.1569,1.1601,1.159,1.1617,1.1657,1.1666,1.1811,1.1785,1.1804,1.1837,1.198,1.1984,1.1988,1.1984,1.1989,1.1994,0,0,0,0,0,0,1.1288,1.1362,1.137,1.1443,1.1492,1.1559,1.1594,1.1606,1.166,1.1658,1.1697,1.1713,1.1785,1.1818,1.1788,1.191,1.1895,1.1903,1.1885,1.1891,1.1895,1.1886,1.1792,0,0,0,0,0,1.1294,1.1345,1.1407,1.1466,1.1491,1.1538,1.1571,1.1592,1.1645,1.1666,1.1711,1.1763,1.1821,1.1857,1.1914,1.1991,1.2007,1.2023,1.2027,1.203,1.2037,1.2083,1.2091,1.2004,1.2004,1.2004,0,0,1.1306,1.1352,1.1383,1.1465,1.1505,1.156,1.1555,1.1612,1.1654,1.1675,1.1747,1.1782,1.1843,1.1919,1.1955,1.195,1.2065,1.2035,1.2037,1.2043,1.2088,1.2096,1.2103,1.2007,1.2006,1.2006,0,0,1.1355,1.1395,1.1449,1.149,1.1551,1.1583,1.1596,1.1661,1.1685,1.1758,1.1775,1.1826,1.1923,1.1967,1.2002,1.207,1.2081,1.2087,1.211,1.2154,1.2161,1.2167,1.2193,1.2202,1.2094,1.2094,1.2094,0,1.1363,1.1444,1.1476,1.1533,1.157,1.1591,1.1647,1.1686,1.1763,1.1789,1.1781,1.1905,1.1948,1.2035,1.2052,1.2079,1.2097,1.208,1.2157,1.2163,1.217,1.2195,1.2205,1.2094,1.2094,1.2094,1.2094,0,1.1451,1.1507,1.1544,1.1617,1.1658,1.1714,1.1757,1.1795,1.1813,1.1845,1.1921,1.1973,1.2041,1.2063,1.2081,1.2154,1.2149,1.2148,1.2135,1.2178,1.2203,1.2213,1.2095,1.2094,1.2094,1.2094,0,0,1.1495,1.1586,1.1599,1.1633,1.1703,1.1748,1.1807,1.1872,1.1905,1.1958,1.2009,1.2092,1.2093,1.2132,1.2156,1.2194,1.2247,1.2189,1.2191,1.22,1.2334,1.2334,1.2345,1.2255,1.2257,1.2258,1.2329,0,1.1554,1.1657,1.1689,1.1776,1.183,1.1852,1.1903,1.1953,1.1986,1.2037,1.2074,1.2133,1.2128,1.2152,1.2191,1.2232,1.2275,1.2228,1.2305,1.2308,1.229,1.2358,1.2358,1.2422,1.2339,1.234,1.2342,0,1.1636,1.169,1.1783,1.1848,1.1871,1.1917,1.1981,1.2029,1.2087,1.2108,1.2153,1.2173,1.2238,1.222,1.231,1.2277,1.2311,1.2336,1.234,1.2349,1.2328,1.237,1.2443,1.2453,1.2357,1.2356,1.2355,0,1.1661,1.1757,1.1825,1.1854,1.193,1.1962,1.1996,1.2052,1.209,1.2147,1.2172,1.2236,1.2271,1.232,1.2358,1.2341,1.2446,1.2431,1.2468,1.2467,1.2489,1.2488,1.257,1.2509,1.2509,1.2509,1.2508,0,1.1724,1.178,1.1837,1.1879,1.1944,1.1981,1.2044,1.208,1.213,1.2181,1.2203,1.2251,1.2298,1.2352,1.2383,1.2454,1.247,1.249,1.2498,1.2489,1.2486,1.2512,1.2509,1.2511,1.2511,1.251,1.251,0,1.1763,1.1803,1.1879,1.1946,1.1964,1.2009,1.2067,1.211,1.2144,1.2208,1.2226,1.228,1.2345,1.2388,1.2472,1.2492,1.2571,1.2577,1.2551,1.2555,1.259,1.2586,1.2693,1.271,1.2636,1.2636,1.2637,0,1.1801,1.1845,1.1916,1.1952,1.1985,1.2042,1.2081,1.212,1.216,1.223,1.2265,1.2332,1.2388,1.2492,1.254,1.2605,1.2613,1.2646,1.2623,1.2613,1.2616,1.2613,1.2619,1.265,1.265,1.2651,1.2651,0,1.1865,1.1883,1.1938,1.2,1.2046,1.2097,1.2149,1.2177,1.2225,1.2269,1.2336,1.2379,1.2465,1.2532,1.2601,1.2638,1.2654,1.2658,1.267,1.2662,1.2646,1.2657,1.2563,1.2656,1.2655,1.2655,1.2655,1.2654,1.1906,1.1947,1.2004,1.2065,1.2107,1.2155,1.2199,1.2239,1.2295,1.2367,1.2387,1.2457,1.2517,1.2611,1.265,1.2707,1.2703,1.2721,1.2725,1.2729,1.2731,1.2636,1.272,1.272,1.272,1.272,1.272,0,1.1973,1.2011,1.2066,1.2137,1.2186,1.2195,1.2253,1.2293,1.2355,1.2408,1.2462,1.254,1.2606,1.2659,1.2727,1.2763,1.2772,1.278,1.2778,1.2787,1.2729,1.2712,1.2771,1.2771,1.2771,1.2771,1.2771,1.2771,1.2013,1.2083,1.2108,1.22,1.2239,1.2307,1.234,1.2385,1.2428,1.2513,1.2568,1.2602,1.2656,1.2728,1.279,1.2804,1.2829,1.2836,1.2852,1.2797,1.2791,1.2785,1.277,1.284,1.284,1.2905,1.2906,1.2906]},{"header":{"parameterUnit":"m.s-1","parameterCategory":1,"la1":30.2991,"la2":30.254,"lo1":-89.0895,"lo2":-89.0444,"dy":0.0017,"dx":0.0017,"nx":28,"ny":28,"refTime":"2024-08-03T21:00:00:Z","depth":0,"parameterNumber":3,"parameterNumberName":"V-component_of_WINDS"},"data":[0,0,0,0,0,0,0,0,0,0,0,0,0,0,0,0,0,0,0,0,0,0,0,0,0,0,0,0,0,0,0,0,0,0,0,0,0,0,0,0,0,0,0,0,0,0,0,0,0,0,0,0,0,0,0,0,0,0,-3.0601,-3.0602,0,-3.0695,-3.0696,-3.0697,-3.0761,-3.0761,-3.0761,-3.0762,-3.0856,-3.0858,-3.086,0,0,0,0,0,0,0,0,0,0,0,0,0,-3.0476,-3.0478,-3.0601,-3.0602,-3.0604,-3.0695,-3.0696,-3.0698,-3.0761,-3.0761,-3.0762,-3.0762,-3.0855,-3.0857,-3.086,0,0,0,0,0,0,0,0,0,0,0,0,0,-3.0546,-3.0479,-3.0601,-3.0646,-3.0651,-3.0695,-3.0696,-3.0698,-3.076,-3.0761,-3.0762,-3.0762,-3.0854,-3.0857,-3.086,-3.0866,0,0,-3.087,-3.0871,0,0,0,0,0,0,0,0,-3.0542,-3.0551,-3.0638,-3.0643,-3.0649,-3.0717,-3.0687,-3.0754,-3.076,-3.0719,-3.0762,-3.0763,-3.0809,-3.0816,-3.0832,-3.087,-3.0874,-3.087,-3.0872,-3.0873,-3.0874,0,0,0,0,0,0,0,-3.0537,-3.0547,-3.0638,-3.0639,-3.0646,-3.0662,-3.0672,-3.07,-3.0759,-3.0722,-3.0727,-3.0738,-3.0812,-3.0828,-3.0834,-3.0876,-3.087,-3.0873,-3.0875,-3.0876,-3.0927,-3.0927,0,0,0,0,0,0,-3.0525,-3.0543,-3.0635,-3.0641,-3.0596,-3.0663,-3.0675,-3.0694,-3.0759,-3.0769,-3.0737,-3.074,-3.0823,-3.0831,-3.0838,-3.0851,-3.0873,-3.0876,-3.0878,-3.0928,-3.0927,-3.0927,0,0,0,0,0,0,-3.0523,-3.0533,-3.0632,-3.0593,-3.0607,-3.0665,-3.0686,-3.0696,-3.0713,-3.077,-3.078,-3.0743,-3.0824,-3.0833,-3.086,-3.0855,-3.0877,-3.088,-3.0929,-3.0928,-3.0927,-3.0877,0,0,0,0,0,0,-3.0519,-3.0532,-3.0534,-3.0593,-3.0609,-3.0651,-3.0685,-3.0697,-3.0718,-3.0723,-3.0779,-3.0788,-3.0825,-3.0855,-3.0863,-3.086,-3.0883,-3.0929,-3.0928,-3.0927,-3.0879,-3.0874,-3.087,0,0,0,0,0,-3.0514,-3.0515,-3.0534,-3.0545,-3.0613,-3.0651,-3.066,-3.0703,-3.0718,-3.0721,-3.0758,-3.0786,-3.0854,-3.0857,-3.0866,-3.0865,-3.093,-3.0928,-3.0927,-3.0881,-3.0875,-3.087,0,0,0,0,0,0,-3.0452,-3.0523,-3.0545,-3.0565,-3.0602,-3.0662,-3.0667,-3.0695,-3.0728,-3.0731,-3.0782,-3.0794,-3.0816,-3.0843,-3.0844,-3.0875,-3.0896,-3.0896,-3.0857,-3.0852,-3.0848,-3.0841,-3.0885,0,0,0,0,0,-3.0441,-3.0466,-3.0527,-3.0539,-3.0556,-3.0608,-3.0626,-3.0657,-3.0696,-3.0712,-3.0751,-3.0787,-3.0818,-3.0836,-3.0867,-3.0883,-3.0897,-3.0887,-3.0883,-3.0879,-3.0879,-3.0893,-3.089,-3.0923,-3.0923,-3.0923,0,0,-3.0418,-3.046,-3.0472,-3.0527,-3.0559,-3.0585,-3.0621,-3.0645,-3.0665,-3.0715,-3.0743,-3.0773,-3.0818,-3.084,-3.0851,-3.0863,-3.0873,-3.0877,-3.0874,-3.0876,-3.0891,-3.0888,-3.0885,-3.0922,-3.0923,-3.0923,0,0,-3.039,-3.0423,-3.0438,-3.047,-3.0519,-3.0554,-3.0558,-3.0614,-3.0637,-3.0666,-3.0705,-3.0729,-3.0779,-3.0811,-3.0833,-3.082,-3.0848,-3.0828,-3.0806,-3.0818,-3.0816,-3.0814,-3.0811,-3.0809,-3.0828,-3.0828,-3.0828,0,-3.0354,-3.0395,-3.0442,-3.0466,-3.0489,-3.0538,-3.0555,-3.0583,-3.0639,-3.0654,-3.0667,-3.0733,-3.0766,-3.0798,-3.0795,-3.0811,-3.0818,-3.0822,-3.0812,-3.0811,-3.081,-3.0808,-3.0806,-3.0825,-3.0826,-3.0826,-3.0826,0,-3.035,-3.0378,-3.0384,-3.0439,-3.0464,-3.0483,-3.0534,-3.0553,-3.0582,-3.0616,-3.0647,-3.0689,-3.073,-3.074,-3.0767,-3.0776,-3.0782,-3.0803,-3.0824,-3.0803,-3.0802,-3.0802,-3.0822,-3.0823,-3.0823,-3.0824,0,0,-3.0284,-3.0367,-3.0369,-3.0396,-3.0455,-3.0477,-3.05,-3.0542,-3.0558,-3.0596,-3.0617,-3.066,-3.068,-3.0706,-3.0737,-3.0748,-3.0738,-3.0768,-3.077,-3.0763,-3.0754,-3.0739,-3.0737,-3.0757,-3.0757,-3.0757,-3.0751,0,-3.0265,-3.031,-3.0355,-3.0383,-3.041,-3.0459,-3.0479,-3.0517,-3.055,-3.0578,-3.0615,-3.0645,-3.0669,-3.0685,-3.0698,-3.0737,-3.0738,-3.0738,-3.0779,-3.0779,-3.0767,-3.0736,-3.072,-3.0712,-3.075,-3.075,-3.075,0,-3.0249,-3.0287,-3.0319,-3.0379,-3.0392,-3.0409,-3.0453,-3.0479,-3.0524,-3.0548,-3.0578,-3.0612,-3.064,-3.0658,-3.0697,-3.0697,-3.0716,-3.0738,-3.0739,-3.0745,-3.0764,-3.0743,-3.071,-3.0709,-3.075,-3.075,-3.075,0,-3.02,-3.0259,-3.0287,-3.0308,-3.0377,-3.0389,-3.0418,-3.0464,-3.0488,-3.0526,-3.0542,-3.0582,-3.0605,-3.0635,-3.068,-3.0689,-3.0715,-3.0737,-3.0737,-3.0736,-3.074,-3.0739,-3.0711,-3.075,-3.075,-3.075,-3.075,0,-3.0176,-3.0194,-3.0266,-3.0283,-3.0305,-3.0357,-3.0377,-3.0411,-3.0452,-3.0477,-3.0521,-3.0543,-3.06,-3.063,-3.0665,-3.0693,-3.0702,-3.0723,-3.0732,-3.072,-3.0717,-3.0734,-3.0736,-3.075,-3.075,-3.075,-3.075,0,-3.0125,-3.0174,-3.0207,-3.0271,-3.0288,-3.0302,-3.0357,-3.0376,-3.0412,-3.0443,-3.0454,-3.0511,-3.0548,-3.0596,-3.0647,-3.0671,-3.0696,-3.071,-3.0681,-3.0687,-3.0685,-3.0685,-3.0667,-3.0668,-3.0705,-3.0704,-3.0704,0,-3.0106,-3.0122,-3.0189,-3.021,-3.0238,-3.027,-3.0295,-3.0347,-3.0372,-3.0427,-3.0439,-3.048,-3.0516,-3.0573,-3.0619,-3.066,-3.0675,-3.0666,-3.0682,-3.067,-3.0678,-3.0677,-3.0679,-3.0662,-3.0662,-3.0661,-3.0661,0,-3.0069,-3.0094,-3.0129,-3.0173,-3.0203,-3.024,-3.0279,-3.0293,-3.0353,-3.0378,-3.0418,-3.0446,-3.05,-3.0541,-3.0588,-3.0619,-3.065,-3.0656,-3.0658,-3.0646,-3.063,-3.0641,-3.0672,-3.0656,-3.0656,-3.0657,-3.0657,-3.0657,-3.0036,-3.0053,-3.0104,-3.0142,-3.0178,-3.0214,-3.0236,-3.0276,-3.0311,-3.036,-3.0388,-3.0428,-3.0475,-3.0542,-3.0572,-3.0603,-3.0615,-3.0618,-3.0619,-3.0619,-3.0616,-3.0624,-3.0612,-3.0612,-3.0612,-3.0612,-3.0613,0,-3.0003,-3.0039,-3.0074,-3.0128,-3.0159,-3.0187,-3.0233,-3.0257,-3.0291,-3.0333,-3.0369,-3.0415,-3.0456,-3.0506,-3.055,-3.0566,-3.0582,-3.0576,-3.0576,-3.0583,-3.0602,-3.0597,-3.0563,-3.0563,-3.0563,-3.0563,-3.0563,-3.0563,-2.9989,-3.0021,-3.0052,-3.0102,-3.0138,-3.0178,-3.0202,-3.0236,-3.027,-3.0321,-3.0356,-3.0389,-3.0435,-3.0484,-3.0522,-3.0536,-3.0551,-3.0541,-3.0559,-3.0577,-3.0581,-3.0585,-3.058,-3.0544,-3.0543,-3.0538,-3.0538,-3.0538]}]]